When you browse on this site, cookies collect data to enhance your experience and personalize the content and advertising you see.
Visit our Privacy Policy to learn more. By continuing to use the site, you agree to this use of cookies and data.
  • Em Portugal
  • Lista de países
  • Para 7 dias
  • Temperatura da água
  • Mapas de satélite
  • Mapa do tempo
  • Widgets de tempo
  • user-avatar
    Iniciar Sessão

    Previsão horária em Sliven

    Hoje, 18 Abril, Quinta-feira

    Tempo Temperatura Precipitação Vento Pressão Humidade
    00:00 +7°C° 0 mm 1 m/s 735 mmHg 94%
    01:00 +6°C° 0 mm 1 m/s 735 mmHg 94%
    02:00 +5°C° 0 mm 0 m/s 735 mmHg 94%
    03:00 +5°C° 0 mm 1 m/s 735 mmHg 94%
    04:00 +5°C° 0 mm 1 m/s 736 mmHg 94%
    05:00 +5°C° 0 mm 1 m/s 736 mmHg 94%
    06:00 +6°C° 0 mm 1 m/s 736 mmHg 89%
    07:00 +8°C° 0 mm 1 m/s 736 mmHg 85%
    08:00 +8°C° 0 mm 2 m/s 737 mmHg 81%
    09:00 +9°C° 0 mm 2 m/s 737 mmHg 76%
    10:00 +10°C° 0 mm 3 m/s 737 mmHg 72%
    11:00 +11°C° 0 mm 3 m/s 737 mmHg 68%
    12:00 +11°C° 0.3 mm 3 m/s 737 mmHg 72%
    13:00 +10°C° 0.3 mm 4 m/s 737 mmHg 76%
    14:00 +10°C° 0.3 mm 4 m/s 737 mmHg 79%
    15:00 +8°C° 0.7 mm 4 m/s 737 mmHg 82%
    16:00 +8°C° 0.7 mm 4 m/s 737 mmHg 85%
    17:00 +8°C° 0.7 mm 3 m/s 737 mmHg 88%
    18:00 +7°C° 0.1 mm 3 m/s 738 mmHg 89%
    19:00 +7°C° 0.1 mm 2 m/s 738 mmHg 91%
    20:00 +7°C° 0.1 mm 2 m/s 738 mmHg 92%
    21:00 +7°C° 0.1 mm 1 m/s 738 mmHg 92%
    22:00 +7°C° 0.1 mm 1 m/s 739 mmHg 92%
    23:00 +7°C° 0.1 mm 1 m/s 739 mmHg 92%

    Amanhã, 19 Abril, Sexta-feira

    Tempo Temperatura Precipitação Vento Pressão Humidade
    00:00 +6°C° 0.1 mm 2 m/s 739 mmHg 92%
    01:00 +6°C° 0.1 mm 2 m/s 739 mmHg 93%
    02:00 +5°C° 0.1 mm 2 m/s 739 mmHg 93%
    03:00 +5°C° 0 mm 2 m/s 738 mmHg 93%
    04:00 +4°C° 0 mm 3 m/s 738 mmHg 93%
    05:00 +4°C° 0 mm 3 m/s 738 mmHg 92%
    06:00 +5°C° 0 mm 3 m/s 738 mmHg 88%
    07:00 +7°C° 0 mm 3 m/s 738 mmHg 84%
    08:00 +7°C° 0 mm 4 m/s 738 mmHg 79%
    09:00 +8°C° 0 mm 4 m/s 738 mmHg 76%
    10:00 +10°C° 0 mm 3 m/s 738 mmHg 73%
    11:00 +10°C° 0 mm 3 m/s 737 mmHg 70%
    12:00 +11°C° 0.3 mm 4 m/s 737 mmHg 67%
    13:00 +12°C° 0.3 mm 4 m/s 737 mmHg 64%
    14:00 +13°C° 0.3 mm 4 m/s 736 mmHg 60%
    15:00 +12°C° 0.7 mm 4 m/s 736 mmHg 66%
    16:00 +11°C° 0.7 mm 3 m/s 736 mmHg 71%
    17:00 +11°C° 0.7 mm 3 m/s 735 mmHg 76%
    18:00 +9°C° 0.8 mm 2 m/s 736 mmHg 80%
    19:00 +8°C° 0.8 mm 2 m/s 736 mmHg 85%
    20:00 +7°C° 0.8 mm 2 m/s 736 mmHg 90%
    21:00 +7°C° 0 mm 2 m/s 737 mmHg 90%
    22:00 +6°C° 0 mm 2 m/s 737 mmHg 91%
    23:00 +5°C° 0 mm 2 m/s 738 mmHg 91%

    Depois de amanhã, 20 Abril, Sábado

    Tempo Temperatura Precipitação Vento Pressão Humidade
    00:00 +5°C° 0.3 mm 2 m/s 738 mmHg 91%
    01:00 +4°C° 0.3 mm 3 m/s 738 mmHg 91%
    02:00 +4°C° 0.3 mm 3 m/s 738 mmHg 91%
    03:00 +3°C° 0 mm 3 m/s 738 mmHg 92%
    04:00 +4°C° 0 mm 2 m/s 738 mmHg 92%
    05:00 +3°C° 0 mm 2 m/s 738 mmHg 92%
    06:00 +3°C° 0 mm 3 m/s 739 mmHg 85%
    07:00 +4°C° 0 mm 3 m/s 739 mmHg 79%
    08:00 +6°C° 0 mm 4 m/s 740 mmHg 72%
    09:00 +6°C° 0.3 mm 4 m/s 740 mmHg 69%
    10:00 +7°C° 0.3 mm 5 m/s 740 mmHg 65%
    11:00 +8°C° 0.3 mm 6 m/s 740 mmHg 62%
    12:00 +9°C° 0.2 mm 6 m/s 740 mmHg 60%
    13:00 +9°C° 0.2 mm 6 m/s 739 mmHg 58%
    14:00 +10°C° 0.2 mm 6 m/s 739 mmHg 57%
    15:00 +9°C° 0.1 mm 5 m/s 739 mmHg 57%
    16:00 +9°C° 0.1 mm 5 m/s 739 mmHg 58%
    17:00 +9°C° 0.1 mm 5 m/s 739 mmHg 59%
    18:00 +7°C° 0 mm 4 m/s 739 mmHg 65%
    19:00 +7°C° 0 mm 3 m/s 739 mmHg 71%
    20:00 +5°C° 0 mm 2 m/s 740 mmHg 77%
    21:00 +5°C° 0 mm 2 m/s 740 mmHg 77%
    22:00 +4°C° 0 mm 2 m/s 740 mmHg 78%
    23:00 +4°C° 0 mm 2 m/s 740 mmHg 78%

    21 Abril, Domingo

    Tempo Temperatura Precipitação Vento Pressão Humidade
    00:00 +3°C° 0 mm 2 m/s 739 mmHg 79%
    01:00 +3°C° 0 mm 2 m/s 739 mmHg 79%
    02:00 +3°C° 0 mm 2 m/s 739 mmHg 79%
    03:00 +4°C° 0 mm 1 m/s 739 mmHg 78%
    04:00 +4°C° 0 mm 1 m/s 739 mmHg 78%
    05:00 +4°C° 0 mm 1 m/s 739 mmHg 78%
    06:00 +6°C° 0 mm 1 m/s 739 mmHg 72%
    07:00 +8°C° 0 mm 1 m/s 739 mmHg 66%
    08:00 +9°C° 0 mm 0 m/s 739 mmHg 60%
    09:00 +11°C° 0 mm 1 m/s 739 mmHg 56%
    10:00 +13°C° 0 mm 1 m/s 739 mmHg 53%
    11:00 +14°C° 0 mm 1 m/s 739 mmHg 49%
    12:00 +14°C° 0.1 mm 1 m/s 738 mmHg 51%
    13:00 +14°C° 0.1 mm 1 m/s 738 mmHg 52%
    14:00 +14°C° 0.1 mm 2 m/s 738 mmHg 54%
    15:00 +14°C° 0.2 mm 2 m/s 737 mmHg 55%
    16:00 +14°C° 0.2 mm 1 m/s 737 mmHg 57%
    17:00 +14°C° 0.2 mm 1 m/s 737 mmHg 59%
    18:00 +12°C° 0.1 mm 1 m/s 737 mmHg 66%
    19:00 +10°C° 0.1 mm 1 m/s 737 mmHg 72%
    20:00 +8°C° 0.1 mm 1 m/s 737 mmHg 78%
    21:00 +8°C° 0 mm 1 m/s 737 mmHg 80%
    22:00 +7°C° 0 mm 1 m/s 737 mmHg 81%
    23:00 +6°C° 0 mm 1 m/s 737 mmHg 83%

    22 Abril, Segunda-feira

    Tempo Temperatura Precipitação Vento Pressão Humidade
    00:00 +6°C° 0 mm 1 m/s 737 mmHg 84%
    01:00 +5°C° 0 mm 1 m/s 737 mmHg 85%
    02:00 +4°C° 0 mm 0 m/s 736 mmHg 86%
    03:00 +4°C° 0 mm 0 m/s 736 mmHg 86%
    04:00 +3°C° 0 mm 0 m/s 736 mmHg 87%
    05:00 +3°C° 0 mm 0 m/s 736 mmHg 87%
    06:00 +6°C° 0 mm 1 m/s 737 mmHg 82%
    07:00 +8°C° 0 mm 1 m/s 737 mmHg 77%
    08:00 +9°C° 0 mm 1 m/s 737 mmHg 72%
    09:00 +10°C° 0 mm 2 m/s 737 mmHg 68%
    10:00 +13°C° 0 mm 2 m/s 738 mmHg 64%
    11:00 +13°C° 0 mm 3 m/s 738 mmHg 60%
    12:00 +14°C° 0 mm 3 m/s 738 mmHg 58%
    13:00 +14°C° 0 mm 3 m/s 737 mmHg 56%
    14:00 +16°C° 0 mm 3 m/s 737 mmHg 55%
    15:00 +15°C° 0 mm 4 m/s 737 mmHg 58%
    16:00 +14°C° 0 mm 4 m/s 737 mmHg 60%
    17:00 +13°C° 0 mm 5 m/s 737 mmHg 63%
    18:00 +11°C° 0 mm 4 m/s 737 mmHg 68%
    19:00 +9°C° 0 mm 3 m/s 737 mmHg 73%
    20:00 +7°C° 0 mm 3 m/s 737 mmHg 79%
    21:00 +5°C° 0 mm 3 m/s 738 mmHg 79%
    22:00 +5°C° 0 mm 2 m/s 738 mmHg 79%
    23:00 +4°C° 0 mm 2 m/s 738 mmHg 79%

    23 Abril, Terça-feira

    Tempo Temperatura Precipitação Vento Pressão Humidade
    00:00 +4°C° 0 mm 2 m/s 738 mmHg 81%
    01:00 +4°C° 0 mm 2 m/s 738 mmHg 82%
    02:00 +5°C° 0 mm 1 m/s 738 mmHg 84%
    03:00 +4°C° 0 mm 2 m/s 738 mmHg 85%
    04:00 +4°C° 0 mm 2 m/s 738 mmHg 87%
    05:00 +4°C° 0 mm 2 m/s 738 mmHg 88%
    06:00 +5°C° 0 mm 2 m/s 738 mmHg 84%
    07:00 +5°C° 0 mm 3 m/s 738 mmHg 80%
    08:00 +8°C° 0 mm 3 m/s 739 mmHg 77%
    09:00 +9°C° 0 mm 3 m/s 739 mmHg 72%
    10:00 +10°C° 0 mm 4 m/s 739 mmHg 67%
    11:00 +12°C° 0 mm 4 m/s 739 mmHg 63%
    12:00 +12°C° 0 mm 4 m/s 739 mmHg 62%
    13:00 +13°C° 0 mm 4 m/s 738 mmHg 60%
    14:00 +13°C° 0 mm 5 m/s 738 mmHg 59%
    15:00 +13°C° 0 mm 5 m/s 737 mmHg 60%
    16:00 +13°C° 0 mm 5 m/s 737 mmHg 62%
    17:00 +13°C° 0 mm 5 m/s 737 mmHg 63%
    18:00 +10°C° 0 mm 5 m/s 737 mmHg 68%
    19:00 +8°C° 0 mm 4 m/s 737 mmHg 73%
    20:00 +6°C° 0 mm 4 m/s 737 mmHg 78%
    21:00 +5°C° 0 mm 4 m/s 737 mmHg 82%
    22:00 +5°C° 0 mm 3 m/s 737 mmHg 86%
    23:00 +4°C° 0 mm 3 m/s 737 mmHg 91%
    Mostrar mais